www.pogodaiklimat.ru

Погода и климат >> Архив погоды >> Пакистан >> Фейсалабад


ПОГОДА в Фейсалабаде

  • Прогноз погоды в Фейсалабаде
  • Монитор погоды в Фейсалабаде

АРХИВ ПОГОДЫ в Фейсалабаде

Время (UTC), дата Ветер
(напр.,м/с)
 
Видим.   Явления Облачность Т
(С)
Тd
(С)
f
(%)
Тe
(С)
Тes
(С)
Комфортность P
(гПа)
Po
(гПа)
Тmin
(С)
Tmax
(С)
R
(мм)
R24
(мм)
S
(см)
12 12.09 ЮВ 2 4000 м мгла ясно +39.0 +22.7 39 +48 +49 опасность
перегрева
999.5 1000.0 +40.3
15 12.09 штиль 0 4000 м дым ясно +34.5 +25.5 60 +49 +49 опасность
перегрева
1000.2 1000.0
18 12.09 штиль 0 4000 м дым ясно +31.5 +26.7 76 +49 +49 опасность
перегрева
1001.9 981.4
21 12.09 ЮВ 1 4000 м дым ясно +30.0 +28.0 89 +50 +50 опасность
перегрева
1002.1 1000.0
00 13.09 ЮВ 2 4000 м дым ясно +29.5 +27.5 89 +48 +48 опасность
перегрева
1003.2 1000.0
03 13.09 ЮВ 3 2000 м дым ясно +31.0 +26.9 79 +48 +52 опасность
перегрева
1004.4 983.8 +28.7
06 13.09 Ю 2 н/о +36.0 +26.4 58 +53 +68 опасность
перегрева
1003.8 983.6
09 13.09 В 1 4000 м мгла 4/4 1200 м
[Sc diur, vesp]
+38.0 +24.0 45 +49 +59 опасность
перегрева
1002.4 1000.0
12 13.09 штиль 0 4000 м мгла 3/3 1200 м
[Sc diur, vesp]
+37.5 +24.2 47 +49 +51 опасность
перегрева
1000.7 1000.0 +38.3
15 13.09 ЮВ 1 4000 м дым ясно +34.0 +25.7 62 +49 +49 опасность
перегрева
1002.1 1000.0
18 13.09 Ю 1 4000 м дым ясно +32.0 +27.2 76 +50 +50 опасность
перегрева
1003.0 1000.0
21 13.09 штиль 0 4000 м дым ясно +30.0 +28.0 89 +50 +50 опасность
перегрева
1003.5 1000.0
00 14.09 ЮВ 1 4000 м дым ясно +29.5 +27.5 89 +48 +48 опасность
перегрева
1003.3 1000.0
03 14.09 ЮВ 1 1000 м дымка ясно +30.0 +27.3 85 +48 +52 опасность
перегрева
1004.7 1000.0 +28.9
06 14.09 штиль 0 4000 м дым 3/3 1200 м
[Sc diur, vesp]
+35.0 +26.1 60 +51 +65 опасность
перегрева
1005.3 1000.0
09 14.09 Ю 1 4000 м мгла 5/5 1200 м
[Sc diur, vesp]
+38.0 +24.0 45 +49 +57 опасность
перегрева
1003.1 1000.0
12 14.09 ЮВ 1 4000 м мгла 8/5 1200 м
[Sc diur, vesp Ac As]
+37.5 +23.4 45 +48 +49 опасность
перегрева
1002.1 1000.0 +38.5
15 14.09 штиль 0 4000 м дым {гроза, дождь} 6/3 1200 м
[Sc Ac trans]
+34.0 +23.3 54 +45 +45 опасность
перегрева
1003.3 1000.0 0.0
18 14.09 штиль 0 4000 м дым {гроза, дождь} 3/0
[Ac trans]
+32.0 +26.5 73 +49 +49 опасность
перегрева
1004.3 1000.0
21 14.09 штиль 0 4000 м дым ясно +30.0 +25.8 78 +45 +45 опасность
перегрева
1004.2 1000.0
00 15.09 штиль 0 4000 м дым ясно +29.0 +26.2 85 +44 +44 опасность
перегрева
1004.9 984.2
03 15.09 ЮВ 1 2000 м дымка ясно +30.0 +27.3 85 +48 +52 опасность
перегрева
1005.9 1000.0 +28.1
06 15.09 штиль 0 4000 м дым 4/4 1200 м
[Sc diur, vesp]
+35.0 +25.3 57 +49 +61 опасность
перегрева
1006.0 1000.0
09 15.09 Ю 2 4000 м мгла 4/4 1200 м
[Sc diur, vesp]
+38.0 +24.0 45 +49 +57 опасность
перегрева
1003.3 983.2
12 15.09 Ю 1 4000 м мгла 4/4 1200 м
[Sc diur, vesp]
+37.0 +23.6 46 +47 +48 опасность
перегрева
1001.8 1000.0 +38.3
15 15.09 ЮЗ 1 4000 м дым ясно +33.5 +25.1 62 +48 +48 опасность
перегрева
1002.4 1000.0
18 15.09 штиль 0 4000 м дым ясно +31.0 +25.4 72 +45 +45 опасность
перегрева
1003.3 1000.0
21 15.09 штиль 0 4000 м дым ясно +29.5 +24.5 75 +42 +42 опасность
перегрева
1003.0 1000.0
00 16.09 штиль 0 4000 м дым ясно +29.0 +25.5 81 +43 +43 опасность
перегрева
1002.8 1000.0
03 16.09 ЮВ 1 2000 м дым ясно +30.5 +25.6 75 +45 +49 опасность
перегрева
1003.8 1000.0 +27.7
06 16.09 ЮВ 1 4000 м дым 4/0
[Ac trans]
+35.0 +25.3 57 +49 +62 опасность
перегрева
1004.6 1000.0
09 16.09 ЮВ 3 4000 м дым 3/3
[Cb calv]
+36.0 +24.9 53 +49 +57 опасность
перегрева
1001.9 1000.0
12 16.09 ЮВ 2 4000 м дым 3/3
[Cb calv]
+36.0 +24.9 53 +49 +50 опасность
перегрева
999.8 1000.0 +36.9
15 16.09 ЮВ 1 4000 м дым 3/0
[Ac trans]
+33.0 +25.3 64 +47 +47 опасность
перегрева
1000.5 1000.0
18 16.09 В 1 4000 м дым ясно +30.5 +26.4 79 +47 +47 опасность
перегрева
1001.6 1000.0
21 16.09 ЮВ 1 4000 м дым ясно +29.0 +26.2 85 +44 +44 опасность
перегрева
1001.8 1000.0
00 17.09 ЮВ 1 4000 м дым ясно +28.0 +25.9 88 +42 +42 опасность
перегрева
1002.6 1000.0
03 17.09 ЮВ 1 2000 м дымка ясно +30.0 +27.3 85 +48 +52 опасность
перегрева
1003.8 1000.0 +27.9
06 17.09 ЮВ 2 4000 м дым 3/3 1200 м
[Sc]
+35.0 +25.3 57 +49 +60 опасность
перегрева
1005.0 1000.0
09 17.09 В 2 4000 м мгла 4/4 1200 м
[Sc diur, vesp]
+37.0 +24.4 49 +49 +57 опасность
перегрева
1002.6 1000.0
12 17.09 С 5 4000 м гроза, ливневой дождь 9/5 900 м
[Cb cap Ac As]
+35.0 +23.7 52 +46 +46 опасность
перегрева
1003.4 1000.0 +38.3 0.0
15 17.09 С 3 4000 м дым {гроза, дождь} ясно +29.0 +19.9 58 +35 +35 очень
душно
1003.7 983.0 0.4
18 17.09 СВ 1 4000 м дым {гроза, дождь} ясно +28.5 +19.4 58 +34 +34 очень
душно
1004.6 1000.0
21 17.09 штиль 0 4000 м дым ясно +28.0 +25.9 88 +42 +42 опасность
перегрева
1004.7 1000.0
00 18.09 В 1 4000 м дым ясно +27.5 +24.7 85 +39 +39 очень
душно
1005.5 1000.0
03 18.09 В 1 2000 м дым ясно +30.0 +25.8 78 +45 +49 опасность
перегрева
1007.4 1000.0 +26.9
06 18.09 ЮВ 2 4000 м дым ясно +35.0 +24.5 55 +48 +64 опасность
перегрева
1008.1 1000.0
09 18.09 ЮВ 3 4000 м мгла 3/3 300 м
[Sc diur, vesp]
+38.0 +19.5 34 +43 +50 опасность
перегрева
1006.4 986.3
12 18.09 ЮВ 1 4000 м мгла 3/3 1200 м
[Sc diur, vesp]
+37.0 +19.1 35 +42 +43 опасность
перегрева
1005.5 1000.0 +38.3
15 18.09 штиль 0 4000 м дым ясно +32.0 +20.9 52 +39 +39 очень
душно
1006.7 1000.0
18 18.09 ЮВ 1 4000 м дым ясно +30.5 +24.1 69 +42 +42 опасность
перегрева
1007.5 1000.0
21 18.09 ЮВ 3 4000 м дым ясно +29.0 +26.2 85 +44 +44 опасность
перегрева
1008.1 987.3
00 19.09 ЮВ 1 4000 м дым ясно +28.0 +26.6 92 +43 +43 опасность
перегрева
1007.9 1000.0
03 19.09 ЮВ 1 2000 м дымка ясно +29.0 +25.5 81 +43 +47 опасность
перегрева
1009.7 1000.0 +27.1
06 19.09 В 2 4000 м дым ясно +33.5 +24.4 59 +46 +62 опасность
перегрева
1010.8 1000.0
09 19.09 В 2 4000 м мгла 5/5 1200 м
[Sc diur, vesp]
+36.0 +23.2 48 +46 +53 опасность
перегрева
1008.6 1000.0

 

Местоположение метеостанции Фейсалабад (Пакистан): широта 31.43 долгота 73.10 высота над уровнем моря 184 м.

В архиве по умолчанию представлена погода в Фейсалабаде за последнюю неделю. Архивные данные за месяц целиком и за предыдущие месяцы, начиная с января 2011 года, Вы можете получить, выбрав интересующий диапазон дат из раскрывающегося списка и нажав кнопку "Ввод!".


*Определитесь, кто Вы:
робот инопланетянин человек

Внимание! Время в таблицах - всемирное. Для получения местного времени необходимо прибавить поправку, которая равна 5 ч.

Смотрите также архив погоды в соседних городах и на ближайших метеорологических станциях:

Погода в Джанге (Пакистан) (76 км)
Погода в Окаре (Пакистан) (77 км)
Погода в Тоба Тек Сингх (Пакистан) (78 км)
Погода в Саргодхе (Пакистан) (80 км)
Погода в Саргодхе (Пакистан) (80 км)
Погода в Сахивале (Пакистан) (86 км)
Погода в Хафизабаде (Пакистан) (89 км)
Погода на Авиабазе Raifiqui (Пакистан) (112 км)
Погода в Лахоре (Пакистан) (117 км)
Погода в Нур Пур Тал (Пакистан) (124 км)

Пояснения к столбцам:

Ветер - указаны скорость ветра в м/с - средняя за 10 мин, порывы в срок и между сроками (в фигурных скобках) и направление, откуда дует ветер: С - северный, СВ - северо-восточный, В - восточный, ЮВ - юго-восточный, Ю - южный, ЮЗ - юго-западный, З - западный, СЗ - северо-западный.
Видимость - горизонтальная дальность видимости в метрах или километрах. При видимости от 1 до 10 км при отсутствии осадков обычно наблюдается дымка, при ухудшении видимости до 1 км и менее - туман. В сухую погоду видимость может ухудшаться дымом, пылью или мглою.
Явления - указаны атмосферные явления, наблюдавшиеся в срок или в последний час перед сроком; фигурными скобками обозначены явления, наблюдавшиеся между сроками (за 1-3 часа до срока); квадратными скобками обозначены град или гололедные отложения с указанием их диаметра в мм.
Облачность - указаны через наклонную черту общая и нижняя облачность в баллах и высота нижней границы облаков в метрах; квадратными скобками обозначены формы облаков: Ci - перистые, Cs - перисто-слоистые, Cc - перисто-кучевые, Ac - высококучевые, As - высокослоистые, Sc - слоисто-кучевые, Ns - слоисто-дождевые, Cu - кучевые, Cb - кучево-дождевые. Подробнее классификацию облаков см. в Атласе облаков (PDF).
T - Температура воздуха - температура, измеренная на высоте 2 м над землей.
Td - Температура точки росы - температура, при понижении до которой содержащийся в воздухе водяной пар достигнет насыщения.
f - Относительная влажность воздуха - влажноcть воздуха, измеренная на высоте 2 м над землей.
Te - Эффективная температура - температура, которую ощущает одетый по сезону человек в тени. Характеристика душности погоды. При расчете учитывается влияние влажности воздуха и скорости ветра на теплоощущения человека.
Tes - Эффективная температура на солнце - температура, которую ощущает человек, с поправкой на солнечный нагрев. Характеристика знойности погоды. Зависит от высоты солнца над горизонтом, облачности и скорости ветра. Ночью, в пасмурную погоду, а также при ветре 12 м/с и более поправка равна нулю.
P - Атмосферное давление - приведенное к уровню моря атмосферное давление.
Po - Атмосферное давление - измеренное на уровне метеостанции атмосферное давление.
Tmin - Минимальная температура - минимум температуры воздуха на высоте 2 м над землей.
Tmax - Максимальная температура - максимум температуры воздуха на высоте 2 м над землей.
R - Количество осадков - Количество выпавших осадков за период времени, мм. При наведении курсора мыши на число - период времени, за который выпало указанное количество осадков.
R24 - Количество осадков - Количество выпавших осадков за 24 часа, мм.
S - Снежный покров - Высота снежного покрова, см. При наведении курсора мыши на число - состояние снежного покрова и степень покрытия местности в баллах.